Weather History for Haines, AK

Change the Weather History Date:

Monday, November 5, 2012

  Actual Average Record
Temperature  
Mean Temperature 38 °F -  
Max Temperature 42 °F 36 °F 51 °F (1974)
Min Temperature 33 °F 29 °F 14 °F (2006)
Degree Days  
Heating Degree Days 28    
Moisture  
Dew Point 37 °F    
Average Humidity 90    
Maximum Humidity 100    
Minimum Humidity 81    
Precipitation  
Precipitation 0.26 in - - ()
Sea Level Pressure  
Sea Level Pressure 29.78 in    
Wind  
Wind Speed 12 mph (East)    
Max Wind Speed 18 mph    
Max Gust Speed 32 mph    
Visibility 9 miles    
Events Rain    
Averages and records for this station are not official NWS values.
T = Trace of Precipitation, MM = Missing Value Source: NWS Daily Summary

Daily Weather History Graph

Daily Weather History Graph

Search for Another Location

Airport:

Trip Planner

Search our weather history database for the weather conditions in past years. The results will help you decide how hot, cold, wet, or windy it might be!

Date:

Astronomy

Nov. 05, 2012 Rise Set
Actual Time 7:32 AM AKST 3:57 PM AKST
Civil Twilight 6:47 AM AKST 4:42 PM AKST
Nautical Twilight 5:58 AM AKST 5:31 PM AKST
Astronomical Twilight 5:11 AM AKST 6:18 PM AKST
Moon 9:46 PM AKST (11/5) 12:57 PM AKST (11/5)
Length of Visible Light 9h 55m
Length of Day
8h 25m
Waning Gibbous, 61% of the Moon is Illuminated
Nov 5
Waning Gibbous
Nov 6
Last Quarter
Nov 13
New
Nov 20
First Quarter
Nov 28
Full

Hourly Weather History & Observations

Time (AKST) Temp. Windchill Dew Point Humidity Pressure Visibility Wind Dir Wind Speed Gust Speed Precip Events Conditions
12:54 AM 36.0 °F 27.5 °F 33.1 °F 89% 29.37 in 10.0 mi WNW 12.7 mph - N/A   Overcast
1:54 AM 36.0 °F 28.5 °F 33.1 °F 89% 29.43 in 10.0 mi WNW 10.4 mph - 0.00 in Rain Light Rain
2:54 AM 35.1 °F 30.1 °F 34.0 °F 96% 29.48 in 9.0 mi WNW 5.8 mph - 0.00 in Rain Light Rain
3:54 AM 35.1 °F 31.0 °F 34.0 °F 96% 29.52 in 7.0 mi WNW 4.6 mph - 0.02 in Rain Light Rain
4:11 AM 35.6 °F 29.2 °F 33.8 °F 93% 29.53 in 8.0 mi WNW 8.1 mph - 0.01 in Rain Light Rain
4:31 AM 33.8 °F 26.4 °F 33.8 °F 100% 29.54 in 8.0 mi WNW 9.2 mph - 0.02 in Rain Light Rain
4:54 AM 34.0 °F 26.6 °F 33.1 °F 96% 29.57 in 7.0 mi WNW 9.2 mph - 0.04 in Rain Light Rain
5:54 AM 33.1 °F 27.7 °F 32.0 °F 96% 29.61 in 7.0 mi NW 5.8 mph - 0.04 in Rain Light Rain
6:09 AM 35.6 °F 28.0 °F 33.8 °F 93% 29.61 in 8.0 mi WNW 10.4 mph - 0.01 in Rain Light Rain
6:54 AM 34.0 °F 26.6 °F 33.1 °F 96% 29.64 in 9.0 mi West 9.2 mph - 0.06 in Rain Light Rain
7:54 AM 39.0 °F 32.8 °F 37.0 °F 93% 29.67 in 10.0 mi East 9.2 mph - 0.02 in Rain Light Rain
8:54 AM 41.0 °F 34.3 °F 39.0 °F 93% 29.70 in 9.0 mi ESE 11.5 mph 18.4 mph 0.00 in Rain Light Rain
9:45 AM 41.0 °F 33.5 °F 39.2 °F 93% 29.72 in 9.0 mi East 13.8 mph 24.2 mph 0.01 in Rain Light Rain
9:52 AM 41.0 °F 33.5 °F 39.2 °F 93% 29.72 in 9.0 mi East 13.8 mph 23.0 mph 0.01 in Rain Light Rain
9:54 AM 41.0 °F 33.1 °F 39.0 °F 93% 29.73 in 9.0 mi East 15.0 mph 25.3 mph 0.01 in Rain Light Rain
10:54 AM 42.1 °F 33.9 °F 39.0 °F 89% 29.76 in 10.0 mi ESE 17.3 mph 28.8 mph 0.01 in Rain Light Rain
11:54 AM 42.1 °F 34.5 °F 39.0 °F 89% 29.79 in 9.0 mi East 15.0 mph 28.8 mph 0.00 in Rain Light Rain
12:54 PM 41.0 °F 32.2 °F 39.0 °F 93% 29.80 in 8.0 mi ESE 18.4 mph 25.3 mph 0.01 in Rain Light Rain
1:31 PM 41.0 °F 32.5 °F 39.2 °F 93% 29.82 in 7.0 mi ESE 17.3 mph 29.9 mph 0.01 in Rain Light Rain
1:38 PM 41.0 °F 33.1 °F 39.2 °F 93% 29.82 in 6.0 mi East 15.0 mph 28.8 mph 0.01 in Rain Light Rain
1:54 PM 41.0 °F 32.8 °F 37.9 °F 89% 29.84 in 5.0 mi ESE 16.1 mph 27.6 mph 0.01 in Rain Light Rain
2:21 PM 41.0 °F 32.5 °F 39.2 °F 93% 29.83 in 6.0 mi East 17.3 mph 29.9 mph 0.01 in Rain Light Rain
2:54 PM 41.0 °F 32.2 °F 37.9 °F 89% 29.85 in 6.0 mi ESE 18.4 mph 31.1 mph 0.02 in Rain Light Rain
3:16 PM 41.0 °F 33.1 °F 37.4 °F 87% 29.83 in 10.0 mi ESE 15.0 mph 27.6 mph 0.00 in Rain Light Rain
3:45 PM 41.0 °F 33.9 °F 37.4 °F 87% 29.86 in 10.0 mi ESE 12.7 mph 24.2 mph 0.01 in   Overcast
3:54 PM 41.0 °F 32.8 °F 37.0 °F 86% 29.87 in 10.0 mi ESE 16.1 mph 27.6 mph 0.01 in Rain Light Rain
4:54 PM 39.9 °F 31.1 °F 37.0 °F 89% 29.90 in 10.0 mi ESE 17.3 mph 27.6 mph 0.00 in Rain Light Rain
5:54 PM 39.9 °F 32.5 °F 37.0 °F 89% 29.91 in 10.0 mi East 12.7 mph 25.3 mph 0.01 in Rain Light Rain
6:52 PM 39.2 °F 30.8 °F 37.4 °F 93% 29.91 in 10.0 mi East 15.0 mph 21.9 mph 0.00 in Rain Light Rain
6:54 PM 39.9 °F 31.8 °F 37.9 °F 93% 29.92 in 10.0 mi East 15.0 mph 21.9 mph 0.00 in Rain Light Rain
7:09 PM 39.2 °F 32.0 °F 37.4 °F 93% 29.92 in 10.0 mi East 11.5 mph 26.5 mph 0.00 in Rain Light Rain
7:43 PM 39.2 °F 30.2 °F 37.4 °F 93% 29.92 in 10.0 mi East 17.3 mph 32.2 mph 0.00 in   Overcast
7:54 PM 39.9 °F 32.5 °F 37.9 °F 93% 29.94 in 10.0 mi East 12.7 mph 21.9 mph 0.00 in Rain Light Rain
8:07 PM 39.2 °F 31.2 °F 37.4 °F 93% 29.93 in 10.0 mi East 13.8 mph 24.2 mph 0.00 in Rain Light Rain
8:33 PM 39.2 °F 31.6 °F 37.4 °F 93% 29.93 in 10.0 mi ENE 12.7 mph 25.3 mph 0.00 in Rain Light Rain
8:54 PM 39.9 °F 31.1 °F 37.0 °F 89% 29.94 in 10.0 mi ENE 17.3 mph 25.3 mph 0.00 in   Mostly Cloudy
9:17 PM 39.2 °F 31.2 °F 37.4 °F 93% 29.93 in 10.0 mi East 13.8 mph 27.6 mph N/A   Scattered Clouds
9:54 PM 41.0 °F 33.9 °F 37.0 °F 86% 29.94 in 10.0 mi ENE 12.7 mph 20.7 mph N/A   Overcast
10:54 PM 41.0 °F 35.8 °F 36.0 °F 82% 29.92 in 10.0 mi ENE 8.1 mph 21.9 mph 0.00 in Rain Light Rain
11:07 PM 41.0 °F 34.3 °F 35.6 °F 81% 29.91 in 10.0 mi ENE 11.5 mph 19.6 mph 0.00 in   Overcast
11:17 PM 41.0 °F 35.8 °F 35.6 °F 81% 29.90 in 10.0 mi NE 8.1 mph - 0.00 in   Overcast
11:32 PM 41.0 °F 35.8 °F 35.6 °F 81% 29.90 in 10.0 mi East 8.1 mph - 0.00 in   Overcast
11:42 PM 41.0 °F 36.4 °F 35.6 °F 81% 29.90 in 10.0 mi ENE 6.9 mph - 0.00 in   Overcast
11:54 PM 41.0 °F 37.1 °F 36.0 °F 82% 29.91 in 10.0 mi Variable 5.8 mph - 0.00 in   Overcast